This is the latest recevied weather packets stored in our database for station/object AJ5AG. If no packets are shown the sender has not sent any weather packets the latest 1 day(s).
| Time | Temp. | Humidity | Pressure | Rain* | Wind** | Luminosity | Snow |
|---|---|---|---|---|---|---|---|
| 1777987049 | 22.22° C | 89% | 1011.5 hPa | 0 mm | 0 m/s | 31 W/m² | - |
| 1777986746 | 22.22° C | 89% | 1011.6 hPa | 0 mm | 0 m/s | 22 W/m² | - |
| 1777986444 | 22.22° C | 90% | 1011.8 hPa | 0 mm | 0.45 m/s, 106° | 29 W/m² | - |
| 1777986142 | 22.22° C | 90% | 1011.6 hPa | 0 mm | 0 m/s | 26 W/m² | - |
| 1777985838 | 22.22° C | 90% | 1011.8 hPa | 0 mm | 0 m/s | 36 W/m² | - |
| 1777985536 | 22.22° C | 90% | 1011.5 hPa | 0 mm | 0 m/s | 18 W/m² | - |
| 1777985232 | 22.22° C | 90% | 1011.5 hPa | 0 mm | 0 m/s | 24 W/m² | - |
| 1777984929 | 22.22° C | 90% | 1011.3 hPa | 0 mm | 0 m/s | 32 W/m² | - |
| 1777984625 | 22.22° C | 90% | 1011.2 hPa | 0 mm | 0 m/s | 14 W/m² | - |
| 1777984322 | 22.22° C | 90% | 1011.2 hPa | 0 mm | 0 m/s | 16 W/m² | - |
| 1777984018 | 22.22° C | 90% | 1011.1 hPa | 0 mm | 0 m/s | 5 W/m² | - |
| 1777983716 | 22.22° C | 90% | 1010.9 hPa | 0 mm | 0 m/s | 22 W/m² | - |
| 1777983412 | 22.22° C | 89% | 1010.7 hPa | 0 mm | 0 m/s | 25 W/m² | - |
| 1777983109 | 22.22° C | 89% | 1010.8 hPa | 0 mm | 0.45 m/s, 85° | 16 W/m² | - |
| 1777982805 | 22.22° C | 90% | 1010.9 hPa | 0 mm | 0.45 m/s, 70° | 6 W/m² | - |
| 1777982501 | 22.22° C | 89% | 1010.8 hPa | 0 mm | 0 m/s | 12 W/m² | - |
| 1777982195 | 22.22° C | 89% | 1010.9 hPa | 0 mm | 0 m/s | 8 W/m² | - |
| 1777981893 | 22.22° C | 89% | 1010.8 hPa | 0 mm | 0 m/s | 6 W/m² | - |
| 1777981590 | 21.67° C | 89% | 1011 hPa | 0 mm | 0 m/s | 4 W/m² | - |
| 1777981286 | 22.22° C | 89% | 1011 hPa | 0 mm | 0 m/s | 1 W/m² | - |
| 1777980982 | 22.22° C | 89% | 1010.8 hPa | 0 mm | 0 m/s | 1 W/m² | - |
| 1777980679 | 22.22° C | 89% | 1010.8 hPa | 0 mm | 0 m/s | 0 W/m² | - |
| 1777980375 | 22.22° C | 89% | 1011 hPa | 0 mm | 0.45 m/s, 121° | 0 W/m² | - |
| 1777980074 | 22.22° C | 89% | 1010.8 hPa | 0 mm | 0 m/s | 0 W/m² | - |
| 1777979774 | 22.22° C | 89% | 1010.8 hPa | 0 mm | 0 m/s | 0 W/m² | - |
* Rain latest hour (hover to see other rain measurements)
** Current wind speed in m/s (hover to see current wind gust speed)